This is the latest recevied weather packets stored in our database for station/object DL9CN-10. If no packets are shown the sender has not sent any weather packets the latest 10 day(s).
| Time | Temp. | Humidity | Pressure | Rain* | Wind** | Luminosity | Snow |
|---|---|---|---|---|---|---|---|
| 1778104381 | 15° C | 65% | 1011.7 hPa | - | - | - | - |
| 1778103481 | 15° C | 65% | 1011.7 hPa | - | - | - | - |
| 1778102581 | 15.56° C | 65% | 1011.6 hPa | - | - | - | - |
| 1778101681 | 15.56° C | 65% | 1011.6 hPa | - | - | - | - |
| 1778100781 | 15.56° C | 64% | 1011.4 hPa | - | - | - | - |
| 1778099880 | 15.56° C | 64% | 1011.4 hPa | - | - | - | - |
| 1778098980 | 16.11° C | 63% | 1011.3 hPa | - | - | - | - |
| 1778098080 | 16.11° C | 63% | 1011.2 hPa | - | - | - | - |
| 1778097180 | 16.11° C | 63% | 1011 hPa | - | - | - | - |
| 1778096280 | 16.11° C | 62% | 1010.9 hPa | - | - | - | - |
| 1778095380 | 16.67° C | 62% | 1010.6 hPa | - | - | - | - |
| 1778094480 | 16.67° C | 62% | 1010.4 hPa | - | - | - | - |
| 1778092680 | 17.22° C | 61% | 1010.2 hPa | - | - | - | - |
| 1778091779 | 17.22° C | 61% | 1009.9 hPa | - | - | - | - |
| 1778087279 | 17.78° C | 59% | 1009 hPa | - | - | - | - |
| 1778086379 | 18.33° C | 59% | 1009 hPa | - | - | - | - |
| 1778084581 | 18.33° C | 58% | 1009 hPa | - | - | - | - |
| 1778083681 | 18.89° C | 58% | 1009.1 hPa | - | - | - | - |
| 1778082781 | 18.89° C | 58% | 1009.1 hPa | - | - | - | - |
| 1778081881 | 19.44° C | 58% | 1009.1 hPa | - | - | - | - |
| 1778080981 | 19.44° C | 58% | 1008.8 hPa | - | - | - | - |
| 1778080080 | 19.44° C | 57% | 1009 hPa | - | - | - | - |
| 1778079180 | 20° C | 57% | 1008.9 hPa | - | - | - | - |
| 1778078280 | 20° C | 57% | 1008.7 hPa | - | - | - | - |
| 1778077380 | 20° C | 57% | 1008.8 hPa | - | - | - | - |
* Rain since midnight (hover to see other rain measurements)
** Current wind speed in m/s (hover to see current wind gust speed)